User: anonymous   Login
Location: Melbourne
(37.8170°S, 144.9670°E)
Time: 16:36:55
(UTC+11:00)
Language:

Cosmos 962 Rocket - Orbit

View from above orbital plane
View from above orbital plane
View from above satellite
View from above satellite

Ground track
Ground track

The orbit data is extracted from the following two-line orbital elements,

1 10461U 77107B   15030.86807179  .00000081  00000-0  66176-4 0  7198
2 10461 082.9503 297.9991 0034391 059.5593 007.4768 13.76718706871298
Epoch (UTC): 30 January 2015 20:50:01
Eccentricity: 0.0034391
inclination: 82.9503°
perigee height: 950 km
apogee height: 1001 km
right ascension of ascending node: 297.9991°
argument of perigee: 59.5593°
revolutions per day: 13.76718706
mean anomaly at epoch: 7.4768°
orbit number at epoch: 87129

The dashed part of the orbit path shows where the satellite is in the earth's shadow,  

DLR